DAH6142 DAAG-DAUA

Flight info

Callsign DAH6142
Flight time 1h 31m
Altitude 30000
Route ALR DCT CELBA DCT CHE UA29 BAY UG26 TIO UJ40 ADR
Aircraft B722/M-SDFHIWY/C

Departure

Time 2026-05-04 15:44
Airport Houari Boumediene Airport (DAAG)

Arrival

Time 2026-05-04 17:16
Airport Touat-Cheikh Sidi Mohamed Belkebir Airport (DAUA)
Time Latitude Longitude Altitude Speed Heading
2026-05-04 15:19 36.69670 3.21455 73 ft 0 kts 207°
2026-05-04 15:41 36.69669 3.21454 73 ft 1 kts 207°
2026-05-04 15:41 36.69630 3.21431 69 ft 10 kts 197°
2026-05-04 15:41 36.69532 3.21439 70 ft 17 kts 162°
2026-05-04 15:41 36.69423 3.21489 71 ft 17 kts 155°
2026-05-04 15:42 36.69380 3.21619 73 ft 18 kts 89°
2026-05-04 15:42 36.69382 3.21779 72 ft 19 kts 88°
2026-05-04 15:42 36.69380 3.21940 71 ft 18 kts 90°
2026-05-04 15:42 36.69418 3.22069 82 ft 16 kts 52°
2026-05-04 15:43 36.69436 3.22099 82 ft 0 kts 52°
2026-05-04 15:43 36.69440 3.22106 82 ft 5 kts 52°
2026-05-04 15:43 36.69564 3.22309 81 ft 58 kts 53°
2026-05-04 15:44 36.69914 3.22885 82 ft 106 kts 52°
2026-05-04 15:44 36.70446 3.23746 82 ft 142 kts 51°
2026-05-04 15:44 36.71068 3.24758 319 ft 150 kts 51°
2026-05-04 15:44 36.71694 3.25819 704 ft 153 kts 53°
2026-05-04 15:45 36.72319 3.26904 1109 ft 155 kts 47°
2026-05-04 15:45 36.73201 3.27621 1433 ft 159 kts 13°
2026-05-04 15:45 36.74311 3.27476 1755 ft 165 kts 328°
2026-05-04 15:45 36.75040 3.26385 1982 ft 178 kts 288°
2026-05-04 15:46 36.75292 3.24822 2278 ft 187 kts 281°
2026-05-04 15:46 36.75516 3.23209 2728 ft 191 kts 279°
2026-05-04 15:46 36.75742 3.21569 3169 ft 195 kts 278°
2026-05-04 15:46 36.75986 3.19830 3407 ft 210 kts 277°
2026-05-04 15:47 36.76235 3.17984 3690 ft 221 kts 275°
2026-05-04 15:47 36.76186 3.15993 3966 ft 242 kts 258°
2026-05-04 15:47 36.75825 3.13835 4298 ft 267 kts 256°
2026-05-04 15:47 36.75443 3.11580 5220 ft 262 kts 255°
2026-05-04 15:48 36.75071 3.09355 6118 ft 263 kts 255°
2026-05-04 15:48 36.74703 3.07114 7007 ft 262 kts 256°
2026-05-04 15:48 36.73980 3.02669 8834 ft 260 kts 257°
2026-05-04 15:49 36.73623 3.00463 9785 ft 259 kts 257°
2026-05-04 15:49 36.73265 2.98258 10591 ft 260 kts 257°
2026-05-04 15:49 36.72904 2.96039 11371 ft 262 kts 257°
2026-05-04 15:49 36.72530 2.93756 11874 ft 276 kts 256°
2026-05-04 15:50 36.72134 2.91357 12353 ft 289 kts 256°
2026-05-04 15:50 36.71717 2.88847 12840 ft 302 kts 256°
2026-05-04 15:50 36.71284 2.86238 13334 ft 313 kts 256°
2026-05-04 15:50 36.70839 2.83556 14052 ft 315 kts 256°
2026-05-04 15:51 36.70399 2.80862 14678 ft 321 kts 256°
2026-05-04 15:51 36.69949 2.78122 15313 ft 324 kts 256°
2026-05-04 15:51 36.69494 2.75352 15980 ft 328 kts 257°
2026-05-04 15:51 36.69034 2.72558 16624 ft 331 kts 257°
2026-05-04 15:52 36.68568 2.69732 17267 ft 335 kts 257°
2026-05-04 15:52 36.68096 2.66878 17900 ft 338 kts 257°
2026-05-04 15:52 36.67618 2.63994 18479 ft 342 kts 257°
2026-05-04 15:52 36.67136 2.61086 19038 ft 344 kts 257°
2026-05-04 15:53 36.66650 2.58160 19582 ft 346 kts 257°
2026-05-04 15:53 36.66159 2.55209 20096 ft 349 kts 257°
2026-05-04 15:53 36.65664 2.52237 20630 ft 351 kts 257°
2026-05-04 15:53 36.65165 2.49248 21139 ft 354 kts 257°
2026-05-04 15:54 36.64669 2.46282 21642 ft 356 kts 257°
2026-05-04 15:54 36.64162 2.43248 22139 ft 359 kts 257°
2026-05-04 15:54 36.63650 2.40194 22654 ft 362 kts 257°
2026-05-04 15:54 36.63134 2.37119 23107 ft 365 kts 257°
2026-05-04 15:55 36.62615 2.34020 23607 ft 367 kts 257°
2026-05-04 15:55 36.62078 2.30902 23988 ft 369 kts 256°
2026-05-04 15:55 36.61515 2.27780 24444 ft 370 kts 256°
2026-05-04 15:55 36.60950 2.24644 24835 ft 373 kts 256°
2026-05-04 15:56 36.60382 2.21492 25257 ft 374 kts 256°
2026-05-04 15:56 36.59621 2.18394 25583 ft 377 kts 243°
2026-05-04 15:56 36.57989 2.15846 25952 ft 383 kts 221°
2026-05-04 15:56 36.55686 2.14126 26337 ft 392 kts 209°
2026-05-04 15:57 36.53098 2.12971 26722 ft 401 kts 197°
2026-05-04 15:57 36.50355 2.12288 27066 ft 402 kts 200°
2026-05-04 15:57 36.47666 2.11346 27402 ft 403 kts 201°
2026-05-04 15:57 36.44972 2.10363 27758 ft 403 kts 202°
2026-05-04 15:58 36.42288 2.09310 28050 ft 406 kts 204°
2026-05-04 15:58 36.39636 2.08117 28349 ft 405 kts 208°
2026-05-04 15:58 36.37058 2.06693 28680 ft 406 kts 210°
2026-05-04 15:58 36.34480 2.05239 28989 ft 408 kts 210°
2026-05-04 15:59 36.31886 2.03774 29284 ft 411 kts 210°
2026-05-04 15:59 36.29279 2.02301 29627 ft 412 kts 210°
2026-05-04 15:59 36.26654 2.00844 29946 ft 414 kts 209°
2026-05-04 15:59 36.23999 1.99383 29984 ft 422 kts 209°
2026-05-04 16:00 36.18537 1.96422 29988 ft 435 kts 209°
2026-05-04 16:00 36.12919 1.93315 29992 ft 450 kts 209°
2026-05-04 16:01 36.07166 1.90120 29983 ft 462 kts 209°
2026-05-04 16:01 36.01237 1.86904 29979 ft 466 kts 208°
2026-05-04 16:02 35.95271 1.83732 29963 ft 467 kts 208°
2026-05-04 16:02 35.89374 1.80579 29966 ft 455 kts 208°
2026-05-04 16:03 35.86490 1.79044 29957 ft 448 kts 208°
2026-05-04 16:03 35.80842 1.76052 29963 ft 436 kts 208°
2026-05-04 16:04 35.75322 1.73148 29957 ft 427 kts 208°
2026-05-04 16:04 35.67250 1.68866 29956 ft 416 kts 209°
2026-05-04 16:05 35.61989 1.66022 29972 ft 410 kts 209°
2026-05-04 16:06 35.54193 1.61863 29992 ft 404 kts 209°
2026-05-04 16:07 35.43964 1.56401 30030 ft 398 kts 209°
2026-05-04 16:08 35.33800 1.51166 30053 ft 397 kts 204°
2026-05-04 16:08 35.25565 1.48815 30065 ft 417 kts 199°
2026-05-04 16:09 35.19807 1.47295 30046 ft 435 kts 198°
2026-05-04 16:09 35.13772 1.45752 30022 ft 451 kts 198°
2026-05-04 16:10 35.07532 1.44132 30000 ft 465 kts 198°
2026-05-04 16:11 34.97867 1.41584 29957 ft 479 kts 198°
2026-05-04 16:11 34.94606 1.40721 29951 ft 480 kts 198°
2026-05-04 16:12 34.74944 1.35515 29917 ft 483 kts 198°
2026-05-04 16:13 34.61861 1.32068 29902 ft 478 kts 198°
2026-05-04 16:14 34.49989 1.28961 29896 ft 475 kts 198°
2026-05-04 16:16 34.33880 1.24768 29894 ft 472 kts 198°
2026-05-04 16:17 34.17834 1.20608 29900 ft 471 kts 198°
2026-05-04 16:18 34.05025 1.17294 29916 ft 470 kts 198°
2026-05-04 16:19 33.89034 1.13173 30008 ft 470 kts 198°
2026-05-04 16:20 33.73041 1.09063 30049 ft 470 kts 198°
2026-05-04 16:22 33.56811 1.06579 30033 ft 467 kts 197°
2026-05-04 16:23 33.37562 1.02446 29927 ft 470 kts 194°
2026-05-04 16:25 33.18238 0.98710 29909 ft 470 kts 194°
2026-05-04 16:26 32.95586 0.94630 29902 ft 470 kts 194°
2026-05-04 16:28 32.79418 0.91690 29890 ft 470 kts 194°
2026-05-04 16:29 32.56823 0.87597 29888 ft 469 kts 194°
2026-05-04 16:31 32.40726 0.84793 29882 ft 469 kts 194°
2026-05-04 16:32 32.21359 0.81411 29875 ft 469 kts 194°
2026-05-04 16:33 32.08441 0.79154 29870 ft 470 kts 194°
2026-05-04 16:34 31.98744 0.77459 29867 ft 470 kts 194°
2026-05-04 16:35 31.79344 0.73986 29860 ft 470 kts 194°
2026-05-04 16:36 31.69644 0.72197 29853 ft 470 kts 194°
2026-05-04 16:37 31.59942 0.70427 29848 ft 471 kts 194°
2026-05-04 16:38 31.47153 0.67450 29853 ft 468 kts 197°
2026-05-04 16:39 31.31126 0.64045 29843 ft 470 kts 195°
2026-05-04 16:40 31.18202 0.61533 29838 ft 471 kts 195°
2026-05-04 16:41 31.01976 0.58641 29830 ft 472 kts 195°
2026-05-04 16:43 30.85742 0.56203 29847 ft 468 kts 197°
2026-05-04 16:43 30.76132 0.54102 29840 ft 469 kts 196°
2026-05-04 16:45 30.56776 0.50313 29818 ft 471 kts 195°
2026-05-04 16:46 30.40593 0.47300 29799 ft 471 kts 195°
2026-05-04 16:47 30.27630 0.44920 29798 ft 472 kts 195°
2026-05-04 16:48 30.14653 0.42554 29798 ft 472 kts 196°
2026-05-04 16:49 30.01666 0.40184 29792 ft 472 kts 196°
2026-05-04 16:50 29.88679 0.37816 29788 ft 473 kts 196°
2026-05-04 16:51 29.78929 0.36036 29780 ft 473 kts 196°
2026-05-04 16:52 29.65930 0.33665 29778 ft 473 kts 196°
2026-05-04 16:53 29.56225 0.31895 29777 ft 473 kts 196°
2026-05-04 16:54 29.43235 0.29526 29802 ft 473 kts 196°
2026-05-04 16:55 29.23771 0.25967 29555 ft 470 kts 198°
2026-05-04 16:56 29.17350 0.24583 29069 ft 468 kts 199°
2026-05-04 16:56 29.08342 0.21476 28314 ft 436 kts 205°
2026-05-04 16:57 29.05481 0.20441 28056 ft 428 kts 204°
2026-05-04 16:57 28.99832 0.18455 27158 ft 423 kts 204°
2026-05-04 16:58 28.91455 0.15583 25749 ft 415 kts 203°
2026-05-04 16:58 28.88689 0.14658 25285 ft 413 kts 202°
2026-05-04 16:59 28.83206 0.12830 24381 ft 408 kts 202°
2026-05-04 17:00 28.72419 0.09251 22527 ft 398 kts 202°
2026-05-04 17:00 28.64528 0.06660 21129 ft 389 kts 201°
2026-05-04 17:01 28.60232 0.05243 20393 ft 385 kts 201°
2026-05-04 17:01 28.55124 0.03558 19510 ft 380 kts 201°
2026-05-04 17:02 28.49270 0.01635 18531 ft 375 kts 200°
2026-05-04 17:02 28.45101 0.00269 17815 ft 370 kts 200°
2026-05-04 17:03 28.42628 -0.00541 17349 ft 368 kts 200°
2026-05-04 17:03 28.40174 -0.01344 16874 ft 366 kts 200°
2026-05-04 17:03 28.35304 -0.02939 15984 ft 362 kts 200°
2026-05-04 17:04 28.30480 -0.04516 15097 ft 359 kts 199°
2026-05-04 17:04 28.25721 -0.06070 14138 ft 353 kts 199°
2026-05-04 17:05 28.21013 -0.07607 12835 ft 350 kts 199°
2026-05-04 17:05 28.16409 -0.09108 11673 ft 343 kts 199°
2026-05-04 17:06 28.11843 -0.10595 10527 ft 339 kts 199°
2026-05-04 17:06 28.09589 -0.11329 9976 ft 336 kts 198°
2026-05-04 17:07 28.05145 -0.12774 8766 ft 329 kts 198°
2026-05-04 17:07 28.03665 -0.13256 8352 ft 326 kts 198°
2026-05-04 17:07 28.00795 -0.14189 7565 ft 322 kts 198°
2026-05-04 17:07 27.98649 -0.14888 6980 ft 320 kts 198°
2026-05-04 17:08 27.96519 -0.15579 6409 ft 317 kts 197°
2026-05-04 17:08 27.92311 -0.16945 5225 ft 312 kts 197°
2026-05-04 17:08 27.90228 -0.17620 4641 ft 310 kts 197°
2026-05-04 17:09 27.88160 -0.18290 4042 ft 308 kts 197°
2026-05-04 17:09 27.86100 -0.18956 3450 ft 307 kts 198°
2026-05-04 17:09 27.84029 -0.19368 3140 ft 298 kts 178°
2026-05-04 17:10 27.81042 -0.16739 2844 ft 283 kts 109°
2026-05-04 17:10 27.83145 -0.11381 2472 ft 245 kts 41°
2026-05-04 17:11 27.84400 -0.10186 2357 ft 224 kts 31°
2026-05-04 17:11 27.85598 -0.09348 2508 ft 182 kts 31°
2026-05-04 17:11 27.87844 -0.07957 2258 ft 204 kts
2026-05-04 17:12 27.89233 -0.08178 2349 ft 197 kts 334°
2026-05-04 17:12 27.90733 -0.10336 2409 ft 160 kts 275°
2026-05-04 17:13 27.89208 -0.13251 2203 ft 150 kts 234°
2026-05-04 17:14 27.87043 -0.15628 1717 ft 144 kts 219°
2026-05-04 17:14 27.86293 -0.16331 1530 ft 137 kts 217°
2026-05-04 17:14 27.84837 -0.17669 984 ft 138 kts 216°
2026-05-04 17:15 27.84151 -0.18300 933 ft 107 kts 219°
2026-05-04 17:15 27.83397 -0.19003 932 ft 56 kts 219°
2026-05-04 17:16 27.82890 -0.19473 927 ft 28 kts 220°
2026-05-04 17:16 27.82779 -0.19582 925 ft 10 kts 47°
2026-05-04 17:17 27.82844 -0.19519 926 ft 15 kts 39°
2026-05-04 17:17 27.83200 -0.19184 931 ft 30 kts 39°
2026-05-04 17:18 27.83381 -0.19018 931 ft 36 kts 40°
2026-05-04 17:18 27.83796 -0.18632 930 ft 32 kts 40°
2026-05-04 17:19 27.83964 -0.18596 934 ft 13 kts 310°
2026-05-04 17:19 27.83991 -0.18631 935 ft 0 kts 309°
2026-05-04 17:20 27.83992 -0.18633 935 ft 0 kts 309°
2026-05-04 17:20 27.84027 -0.18682 933 ft 9 kts 309°
2026-05-04 17:20 27.84069 -0.18754 935 ft 12 kts 272°
2026-05-04 17:21 27.84030 -0.18889 933 ft 6 kts 304°
2026-05-04 17:21 27.84009 -0.18919 932 ft 0 kts 183°
2026-05-04 17:22 27.84005 -0.18919 931 ft 1 kts 177°
2026-05-04 17:22 27.84004 -0.18919 930 ft 0 kts 176°